Waarnemingen

Advertentie
Mijn weer
Grünow, Duitsland (10289): temperatuur & dauwpunt: 14.08.2018 19:00:00 - 20.08.2018 19:00:00 (CEST)Grünow, Duitsland (10289): temperatuur 5cm & temperatuur -5cm: 14.08.2018 19:00:00 - 20.08.2018 19:00:00 (CEST)Grünow, Duitsland (10289): temperatuur -20cm & temperatuur -100cm: 14.08.2018 19:00:00 - 20.08.2018 19:00:00 (CEST)Grünow, Duitsland (10289): windsnelheid & windstoten: 14.08.2018 19:00:00 - 20.08.2018 19:00:00 (CEST)Grünow, Duitsland (10289): windrichting: 14.08.2018 19:00:00 - 20.08.2018 19:00:00 (CEST)Grünow, Duitsland (10289): luchtdruk: 14.08.2018 19:00:00 - 20.08.2018 19:00:00 (CEST)Grünow, Duitsland (10289): zicht: 14.08.2018 19:00:00 - 20.08.2018 19:00:00 (CEST)Grünow, Duitsland (10289): Zonneschijnduur: 14.08.2018 19:00:00 - 20.08.2018 19:00:00 (CEST)Grünow, Duitsland (10289): neerslag: 14.08.2018 19:00:00 - 20.08.2018 19:00:00 (CEST)
Datum & Tijd tt [°C] td [°C] tt 5cm [°C] tt -5cm [°C] tt -20cm [°C] tt -100cm [°C] ff [km/u] ff [kn] fx [km/u] fx [kn] dd ppp [hPa] vv [km] sd [min] rr [mm]
20.08.2018 19:00:00 - - - - - - - - - - - - - - -
20.08.2018 18:00:00 - - - - - - - - - - - - - - -
20.08.2018 17:00:00 - - - - - - - - - - - - - - -
20.08.2018 16:00:00 - - - - - - - - - - - - - - -
20.08.2018 15:00:00 - - - - - - - - - - - - - - -
20.08.2018 14:00:00 - - - - - - - - - - - - - - -
20.08.2018 13:00:00 - - - - - - - - - - - - - - -
20.08.2018 12:00:00 - - - - - - - - - - - - - - -
20.08.2018 11:00:00 - - - - - - - - - - - - - - -
20.08.2018 10:00:00 - - - - - - - - - - - - - - -
20.08.2018 09:00:00 - - - - - - - - - - - - - - -
20.08.2018 08:00:00 - - - - - - - - - - - - - - -
20.08.2018 07:00:00 - - - - - - - - - - - - - - -
20.08.2018 06:00:00 - - - - - - - - - - - - - - -
20.08.2018 05:00:00 - - - - - - - - - - - - - - -
20.08.2018 04:00:00 - - - - - - - - - - - - - - -
20.08.2018 03:00:00 - - - - - - - - - - - - - - -
20.08.2018 02:00:00 - - - - - - - - - - - - - - -
20.08.2018 01:00:00 - - - - - - - - - - - - - - -
20.08.2018 00:00:00 - - - - - - - - - - - - - - -
19.08.2018 23:00:00 - - - - - - - - - - - - - - -
19.08.2018 22:00:00 - - - - - - - - - - - - - - -
19.08.2018 21:00:00 - - - - - - - - - - - - - - -
19.08.2018 20:00:00 - - - - - - - - - - - - - - -
19.08.2018 19:00:00 - - - - - - - - - - - - - - -
19.08.2018 18:00:00 - - - - - - - - - - - - - - -
19.08.2018 17:00:00 - - - - - - - - - - - - - - -
19.08.2018 16:00:00 - - - - - - - - - - - - - - -
19.08.2018 15:00:00 - - - - - - - - - - - - - - -
19.08.2018 14:00:00 - - - - - - - - - - - - - - -
19.08.2018 13:00:00 - - - - - - - - - - - - - - -
19.08.2018 12:00:00 - - - - - - - - - - - - - - -
19.08.2018 11:00:00 - - - - - - - - - - - - - - -
19.08.2018 10:00:00 - - - - - - - - - - - - - - -
19.08.2018 09:00:00 - - - - - - - - - - - - - - -
19.08.2018 08:00:00 - - - - - - - - - - - - - - -
19.08.2018 07:00:00 - - - - - - - - - - - - - - -
19.08.2018 06:00:00 - - - - - - - - - - - - - - -
19.08.2018 05:00:00 - - - - - - - - - - - - - - -
19.08.2018 04:00:00 - - - - - - - - - - - - - - -
19.08.2018 03:00:00 - - - - - - - - - - - - - - -
19.08.2018 02:00:00 - - - - - - - - - - - - - - -
19.08.2018 01:00:00 - - - - - - - - - - - - - - -
19.08.2018 00:00:00 - - - - - - - - - - - - - - -
18.08.2018 23:00:00 - - - - - - - - - - - - - - -
18.08.2018 22:00:00 - - - - - - - - - - - - - - -
18.08.2018 21:00:00 - - - - - - - - - - - - - - -
18.08.2018 20:00:00 - - - - - - - - - - - - - - -
18.08.2018 19:00:00 - - - - - - - - - - - - - - -
18.08.2018 18:00:00 - - - - - - - - - - - - - - -
18.08.2018 17:00:00 - - - - - - - - - - - - - - -
18.08.2018 16:00:00 - - - - - - - - - - - - - - -
18.08.2018 15:00:00 - - - - - - - - - - - - - - -
18.08.2018 14:00:00 - - - - - - - - - - - - - - -
18.08.2018 13:00:00 - - - - - - - - - - - - - - -
18.08.2018 12:00:00 - - - - - - - - - - - - - - -
18.08.2018 11:00:00 - - - - - - - - - - - - - - -
18.08.2018 10:00:00 - - - - - - - - - - - - - - -
18.08.2018 09:00:00 18,6 13,4 22,3 20,7 21,6 19,9 14 8 18 10 NNW 1020,9 35 55 0,0
18.08.2018 08:00:00 17,1 14,2 18,9 19,4 21,8 19,9 5 3 9 5 W 1020,8 34 18 0,0
18.08.2018 07:00:00 15,6 14,4 15,3 18,9 22,0 19,9 6 3 11 6 ZW 1020,9 23 12 0,0
18.08.2018 06:00:00 14,6 13,9 13,7 19,0 22,3 19,9 6 4 12 6 W 1020,3 11 0 0,0
18.08.2018 05:00:00 14,6 14,0 12,3 19,5 22,6 19,9 5 3 11 6 NW 1019,4 12 0 0,0
18.08.2018 04:00:00 15,1 14,2 12,9 20,1 22,9 19,9 8 4 9 5 WNW 1019,7 20 0 0,0
18.08.2018 03:00:00 15,6 14,1 13,5 20,9 23,2 19,9 6 4 14 7 NW 1019,2 26 0 0,0
18.08.2018 02:00:00 16,9 14,8 15,9 21,6 23,5 19,9 11 6 18 10 NNW 1019,0 53 0 0,0
18.08.2018 01:00:00 17,8 14,7 17,2 22,2 23,7 19,9 10 6 17 9 NNW 1018,6 70 0 0,0
18.08.2018 00:00:00 18,5 14,5 17,9 22,8 24,0 19,9 14 7 19 11 NNW 1018,3 70 0 0,0
17.08.2018 23:00:00 19,2 15,0 18,3 23,5 24,4 19,9 15 8 27 15 NNW 1017,8 70 0 0,0
17.08.2018 22:00:00 20,4 14,3 19,4 24,5 24,7 19,9 16 9 34 18 N 1017,3 70 0 0,0
17.08.2018 21:00:00 21,6 13,5 20,5 25,8 24,9 19,9 27 14 36 20 N 1016,4 70 0 0,0
17.08.2018 20:00:00 23,1 14,9 23,1 27,5 25,1 19,9 23 12 39 21 N 1015,5 69 36 0,0
17.08.2018 19:00:00 25,3 16,4 27,4 29,6 25,1 19,9 28 15 42 23 N 1014,5 38 59 0,0
17.08.2018 18:00:00 28,0 15,1 32,2 30,9 24,9 19,9 27 14 44 24 N 1013,8 37 43 0,0
17.08.2018 17:00:00 30,3 11,0 31,9 32,2 24,6 19,9 9 5 18 10 W 1013,2 66 23 0,0
17.08.2018 16:00:00 30,7 10,9 34,7 33,3 24,2 19,9 9 5 24 13 ZW 1013,4 66 40 0,0
17.08.2018 15:00:00 31,3 10,6 37,2 33,5 23,6 19,9 17 9 24 13 WZW 1013,6 32 60 0,0
17.08.2018 14:00:00 30,0 10,7 36,4 32,3 23,0 19,9 10 6 26 14 Z 1014,0 32 60 0,0
17.08.2018 13:00:00 29,6 11,9 34,8 30,8 22,4 19,9 16 9 27 14 ZZO 1014,1 42 60 0,0
17.08.2018 12:00:00 28,8 11,7 34,3 28,9 21,9 19,9 11 6 20 11 ZO 1014,6 43 60 0,0
17.08.2018 11:00:00 26,0 12,3 31,7 26,4 21,5 19,9 6 4 14 7 O 1014,9 50 60 0,0
17.08.2018 10:00:00 24,3 12,1 28,1 23,6 21,3 19,9 5 3 15 8 ZO 1014,8 52 60 0,0
17.08.2018 09:00:00 22,2 12,1 24,0 21,1 21,3 19,9 10 5 18 10 ZO 1014,7 48 60 0,0
17.08.2018 08:00:00 20,1 12,1 21,1 19,6 21,5 19,9 9 5 14 8 ZO 1014,8 48 60 0,0
17.08.2018 07:00:00 18,0 11,5 16,9 19,3 21,7 19,9 9 5 16 9 OZO 1014,5 53 30 0,0
17.08.2018 06:00:00 17,7 11,1 16,8 19,6 21,9 19,9 14 7 24 13 ZO 1014,4 55 0 0,0
17.08.2018 05:00:00 18,0 11,0 17,3 20,0 22,1 19,9 16 9 21 12 ZO 1014,4 62 0 0,0
17.08.2018 04:00:00 19,0 10,9 18,0 20,4 22,4 19,9 13 7 20 11 ZO 1014,7 62 0 0,0
17.08.2018 03:00:00 19,8 11,0 18,6 20,8 22,6 19,9 14 7 23 12 ZO 1014,8 61 0 0,0
17.08.2018 02:00:00 20,5 11,3 19,2 21,3 22,9 19,9 19 10 26 14 ZZO 1015,1 62 0 0,0
17.08.2018 01:00:00 20,8 11,7 19,6 21,9 23,2 19,9 16 9 26 14 ZO 1015,2 55 0 0,0
17.08.2018 00:00:00 21,6 11,9 20,4 22,5 23,5 19,9 17 9 25 13 ZO 1015,0 54 0 0,0
16.08.2018 23:00:00 21,8 12,0 20,8 23,2 23,7 19,9 14 7 18 10 OZO 1014,9 46 0 0,0
16.08.2018 22:00:00 23,0 11,9 21,9 24,3 24,0 19,9 14 7 18 10 ZO 1015,0 60 0 0,0
16.08.2018 21:00:00 23,7 11,6 22,5 25,8 24,2 19,9 11 6 18 10 OZO 1014,9 70 13 0,0
16.08.2018 20:00:00 - - - - - - - - - - - - - - -
16.08.2018 19:00:00 27,7 10,6 29,1 29,4 24,2 19,9 19 11 30 16 ZZO 1014,8 62 60 0,0
16.08.2018 18:00:00 27,8 10,6 30,7 30,9 24,0 19,9 17 9 32 17 Z 1015,3 70 60 0,0
16.08.2018 17:00:00 28,7 10,6 32,2 31,9 23,6 20,0 19 10 36 19 ZZO 1015,6 52 60 0,0
16.08.2018 16:00:00 28,3 11,3 32,8 32,2 23,1 20,0 16 8 34 18 Z 1016,0 36 60 0,0
16.08.2018 15:00:00 27,5 11,6 31,5 31,9 22,5 20,0 19 10 32 17 Z 1016,6 34 60 0,0
16.08.2018 14:00:00 26,8 12,5 32,5 31,1 21,9 20,0 19 10 32 17 Z 1017,2 34 60 0,0
16.08.2018 13:00:00 26,0 12,1 31,9 29,7 21,3 20,0 16 9 31 17 Z 1017,8 34 60 0,0
16.08.2018 12:00:00 25,5 12,9 30,7 27,7 20,8 20,0 14 8 29 16 Z 1018,3 38 60 0,0
16.08.2018 11:00:00 23,8 13,8 28,5 25,2 20,4 20,0 13 7 23 12 ZZW 1018,7 52 60 0,0
16.08.2018 10:00:00 22,7 14,2 25,8 22,5 20,2 20,0 11 6 19 11 ZZW 1019,0 37 60 0,0
16.08.2018 09:00:00 20,7 14,2 22,5 20,0 20,2 20,0 11 6 19 10 ZZW 1019,1 31 60 0,0
16.08.2018 08:00:00 18,4 14,3 19,4 18,3 20,3 20,0 8 4 12 7 ZZW 1019,3 25 51 0,0
16.08.2018 07:00:00 16,4 14,1 15,7 17,9 20,4 20,0 9 5 12 7 ZZO 1019,3 21 6 0,0
16.08.2018 06:00:00 16,8 14,3 15,7 18,3 20,6 20,0 8 4 12 6 Z 1019,3 30 0 0,0
16.08.2018 05:00:00 17,3 14,2 16,8 18,5 20,7 20,0 9 5 13 7 Z 1019,2 37 0 0,0
16.08.2018 04:00:00 16,9 14,4 16,5 18,4 20,9 20,0 9 5 11 6 Z 1019,2 38 0 0,0
16.08.2018 03:00:00 17,0 14,2 16,3 18,4 21,1 20,0 8 4 13 7 Z 1019,3 34 0 0,0
16.08.2018 02:00:00 15,8 13,6 14,3 18,5 21,3 20,0 7 4 11 6 Z 1019,4 32 0 0,0
16.08.2018 01:00:00 16,2 13,8 15,1 18,9 21,6 20,0 9 5 11 6 Z 1019,1 36 0 0,0
16.08.2018 00:00:00 16,8 13,9 15,0 19,6 21,9 20,0 8 4 10 6 Z 1019,1 38 0 0,0
15.08.2018 23:00:00 17,8 14,4 17,1 20,3 22,1 20,1 9 5 10 5 ZZO 1018,9 54 0 0,0
15.08.2018 22:00:00 18,7 14,1 16,4 21,2 22,3 20,1 5 3 9 5 ZW 1018,9 59 0 0,0
15.08.2018 21:00:00 20,2 14,1 17,9 22,4 22,5 20,1 8 4 20 11 WZW 1018,7 70 4 0,0
15.08.2018 20:00:00 21,5 13,9 21,5 23,8 22,6 20,1 13 7 26 14 WZW 1018,1 68 0 0,0
15.08.2018 19:00:00 22,2 13,2 22,6 25,3 22,5 20,1 14 8 29 16 WZW 1017,8 70 12 0,0
15.08.2018 18:00:00 23,0 13,2 24,3 27,1 22,3 20,1 18 10 29 16 W 1017,7 70 57 0,0
15.08.2018 17:00:00 24,0 12,8 27,9 26,6 22,1 20,1 18 10 29 16 WZW 1017,7 70 36 0,0
15.08.2018 16:00:00 22,4 13,3 24,8 25,2 21,9 20,1 16 9 29 15 W 1017,7 70 0 0,0
15.08.2018 15:00:00 22,3 13,4 25,5 26,1 21,6 20,1 19 10 31 17 WZW 1017,6 70 15 0,0
15.08.2018 14:00:00 22,7 12,5 27,3 26,4 21,2 20,1 22 12 36 20 WZW 1017,4 61 32 0,0
15.08.2018 13:00:00 21,8 12,0 26,1 24,7 20,9 20,1 18 10 31 17 WNW 1017,4 70 36 0,0
15.08.2018 12:00:00 21,3 13,7 25,8 22,4 20,7 20,1 19 11 32 17 W 1017,4 70 30 0,0
15.08.2018 11:00:00 19,7 14,3 21,2 21,2 20,6 20,1 21 11 32 17 WNW 1017,2 70 33 0,0
15.08.2018 10:00:00 18,5 14,8 19,3 19,4 20,7 20,1 21 11 32 17 WNW 1016,4 70 0 0,0
15.08.2018 09:00:00 17,7 15,0 17,8 18,9 20,8 20,1 23 12 31 17 W 1015,9 69 0 0,0
15.08.2018 08:00:00 17,8 16,0 17,8 18,8 20,9 20,1 16 9 23 12 W 1015,2 61 0 0,0
15.08.2018 07:00:00 17,7 15,8 17,5 18,7 21,0 20,1 14 8 29 16 W 1014,7 69 0 0,0
15.08.2018 06:00:00 17,5 16,4 17,3 18,7 21,2 20,1 15 8 21 11 W 1014,1 35 0 0,0
15.08.2018 05:00:00 17,3 16,2 16,4 18,7 21,4 20,1 13 7 23 12 WZW 1013,7 35 0 0,0
15.08.2018 04:00:00 17,6 16,2 17,0 19,2 21,6 20,1 16 9 29 15 W 1013,5 19 0 0,0
15.08.2018 03:00:00 17,9 16,6 17,6 19,4 21,8 20,1 18 10 24 13 W 1013,1 23 0 0,0
15.08.2018 02:00:00 18,0 16,8 17,6 19,7 22,0 20,1 19 11 25 14 W 1013,0 23 0 0,0
15.08.2018 01:00:00 18,1 16,4 17,6 20,1 22,3 20,1 16 9 24 13 W 1012,8 29 0 0,0
15.08.2018 00:00:00 18,5 17,1 18,1 20,6 22,5 20,1 16 9 21 12 W 1012,2 33 0 0,0
14.08.2018 23:00:00 18,4 17,5 18,2 21,0 22,8 20,1 8 5 26 14 W 1011,7 27 0 0,0
14.08.2018 22:00:00 18,5 17,3 18,0 21,7 23,1 20,1 14 8 21 11 WZW 1011,3 35 0 0,0
14.08.2018 21:00:00 19,0 16,9 18,1 23,3 23,2 20,1 13 7 46 25 WZW 1010,8 63 0 2,8
14.08.2018 20:00:00 22,2 14,0 21,9 24,9 23,3 20,2 19 10 32 18 ZW 1009,9 70 17 0,0
14.08.2018 19:00:00 23,1 13,8 23,9 26,0 23,3 20,2 18 10 32 17 WZW 1009,5 69 17 0,0

tt = temperatuur
td = dauwpunt
tt 5cm = temperatuur 5cm
tt -5cm = temperatuur -5cm
tt -20cm = temperatuur -20cm
tt -100cm = temperatuur -100cm
ff = windsnelheid
fx = windstoten
dd = windrichting
ppp = luchtdruk
vv = zicht
sd = Zonneschijnduur
rr = neerslag

Weerstations in de omgeving